SP3VKM-10 Weather Reports


Display with metric or nautical units.
time (UTC)temp
F
wind
direction
speed
MPH
gust
MPH
rain 1hr
in
rain 24hr
in
rain mn
in
humidity
%
barometer
mb
20260504081111 79 0.0 0.0 0.00 0.00 0.00 13 1013.8
20260504045110 70 0.0 0.0 0.00 0.00 0.00 42 1013.1
20260504043110 69 0.0 0.0 0.00 0.00 0.00 43 1013.0
20260504041110 68 0.0 0.0 0.00 0.00 0.00 42 1012.9
20260504035110 68 0.0 0.0 0.00 0.00 0.00 39 1012.7
20260504033110 68 0.0 0.0 0.00 0.00 0.00 49 1012.6
20260504025110 69 0.0 0.0 0.00 0.00 0.00 41 1012.5
20260504021110 69 0.0 0.0 0.00 0.00 0.00 35 1012.6
20260504015111 70 0.0 0.0 0.00 0.00 0.00 28 1012.6
20260504013111 70 0.0 0.0 0.00 0.00 0.00 19 1012.6
20260504011110 71 0.0 0.0 0.00 0.00 0.00 13 1012.6
20260504005110 71 0.0 0.0 0.00 0.00 0.00 12 1012.5
20260504003110 72 0.0 0.0 0.00 0.00 0.00 6 1012.3
20260503235110 72 0.0 0.0 0.00 0.00 0.00 5 1012.4
20260503233110 72 0.0 0.0 0.00 0.00 0.00 5 1012.4
20260503225110 72 0.0 0.0 0.00 0.00 0.00 7 1012.4
20260503223110 73 0.0 0.0 0.00 0.00 0.00 1 1012.4
20260503221110 73 0.0 0.0 0.00 0.00 0.00 1 1012.5
20260503215110 73 0.0 0.0 0.00 0.00 0.00 1 1012.6
20260503213110 74 0.0 0.0 0.00 0.00 0.00 1 1012.5
20260503211111 74 0.0 0.0 0.00 0.00 0.00 1 1012.6
20260503205110 74 0.0 0.0 0.00 0.00 0.00 1 1012.7
20260503203111 73 0.0 0.0 0.00 0.00 0.00 1 1012.7
20260503201111 73 0.0 0.0 0.00 0.00 0.00 1 1012.7
20260503195110 73 0.0 0.0 0.00 0.00 0.00 1 1012.8
20260503193110 74 0.0 0.0 0.00 0.00 0.00 1 1012.8
20260503191110 74 0.0 0.0 0.00 0.00 0.00 17 1012.8
20260503185110 74 0.0 0.0 0.00 0.00 0.00 41 1012.8
20260503183110 74 0.0 0.0 0.00 0.00 0.00 1 1012.6
20260503181111 74 0.0 0.0 0.00 0.00 0.00 1 1012.5
20260503175110 74 0.0 0.0 0.00 0.00 0.00 1 1012.4
20260503173110 75 0.0 0.0 0.00 0.00 0.00 1 1012.4
20260503171110 75 0.0 0.0 0.00 0.00 0.00 1 1012.4
20260503131110 76 0.0 0.0 0.00 0.00 0.00 17 1014.2